Location: Praha
(50.0830°N, 14.4670°E)
Time: 21:58:13
(UTC+01:00)

ISS - Pass Details

Date: 08 November 2019
Orbit: 412 x 421 km, 51.6° (Epoch: 15 November)

Event Time Altitude Azimuth Distance (km) Brightness Sun altitude
Exits shadow 05:00:04 77° 202° (SSW) 437 -3.9 -19.9°
Maximum altitude 05:00:05 77° 199° (SSW) 437 -3.8 -19.8°
Drops below altitude 10° 05:03:27 10° 114° (ESE) 1,502 0.1 -19.3°
Sets 05:05:32 0° 113° (ESE) 2,363 1.4 -19.0°
